Hourly Data Report for May 16, 2012

All times are specified in Local Standard Time (LST). Add 1 hour to adjust for Daylight Saving Time where and when it is observed.

GANDER INTL A
NEWFOUNDLAND

48°56'13.000" N
54°34'05.000" W
151.20 m
8401703
71803
YQX

Download Data

Hourly Data (May 2012)
Hourly Data Report for May 16, 2012
Temp Definition
°C
Dew Point Temp Definition
°C
Rel Hum Definition
%
Wind Dir Definition
10's deg

Wind Spd Definition
km/h
Visibility Definition
km
Stn Press Definition
kPa
Hmdx Definition


Wind Chill Definition


Weather Definition


TIME
00:30 Legend Double Dagger 12.2 9.8 85 26 14 10.0 100.69     LegendNANA
01:30 Legend Double Dagger 12.1 9.9 86 23 25 10.0 100.69     LegendNANA
02:30 Legend Double Dagger 11.9 9.8 87 25 15 10.0 100.70     Cloudy
03:30 Legend Double Dagger 11.5 9.6 88 25 13 10.0 100.71     LegendNANA
04:30 Legend Double Dagger 11.5 10.4 93 21 17 10.0 100.70     Rain Showers
05:30 Legend Double Dagger 11.8 10.4 91 23 17 10.0 100.72     Rain Showers
06:30 Legend Double Dagger 11.8 10.9 94 23 13 10.0 100.75     Rain Showers
07:30 Legend Double Dagger 12.3 11.1 92 24 12 10.0 100.77     Rain Showers
08:30 Legend Double Dagger 14.1 12.2 88 23 9 10.0 100.76     Mostly Cloudy
09:30 Legend Double Dagger 16.6 12.6 77 22 11 10.0 100.74     LegendNANA
10:30 Legend Double Dagger 19.1 12.2 64 25 14 10.0 100.74     LegendNANA
11:30 Legend Double Dagger 21.0 10.9 52 25 15 10.0 100.68     Mostly Cloudy
12:30 Legend Double Dagger 22.2 10.2 46 23 18 10.0 100.63     LegendNANA
13:30 Legend Double Dagger 22.7 9.7 43 22 23 10.0 100.59     LegendNANA
14:30 Legend Double Dagger 22.6 8.9 41 20 28 10.0 100.56     Mostly Cloudy
15:30 Legend Double Dagger 21.8 8.8 43 20 35 10.0 100.54     LegendNANA
16:30 Legend Double Dagger 20.5 8.3 45 19 30 10.0 100.53     LegendNANA
17:30 Legend Double Dagger 19.6 9.3 51 21 21 10.0 100.50     Mostly Cloudy
18:30 Legend Double Dagger 18.1 9.8 58 20 25 10.0 100.51     LegendNANA
19:30 Legend Double Dagger 16.8 9.1 60 20 19 10.0 100.50     LegendNANA
20:30 Legend Double Dagger 15.4 8.7 64 21 19 10.0 100.54     Mostly Cloudy
21:30 Legend Double Dagger 14.6 9.2 70 19 18 10.0 100.50     LegendNANA
22:30 Legend Double Dagger 14.1 10.2 77 18 18 10.0 100.45     LegendNANA
23:30 Legend Double Dagger 13.6 11.2 85 17 16 10.0 100.38     Cloudy

Notes on Data Quality.

Legend

  • E = Estimated
  • M = Missing
  • NA = Not Available
  • ‡ = Partner data that is not subject to review by the National Climate Archives
Date modified: